Time,TemperatureF,DewpointF,PressureIn,WindDirection,WindDirectionDegrees,WindSpeedMPH,WindSpeedGustMPH,Humidity,HourlyPrecipIn,Conditions,Clouds,dailyrainin,SoftwareType,DateUTC
2013-09-18 00:00:00,63.3,59.4,29.58,North,4,0.0,2.0,87,0.00,CLR,,0.00,WeatherDisplay:10.37,2013-09-17 22:00:00,
2013-09-18 00:05:00,63.3,59.4,29.58,NNE,27,0.0,2.0,87,0.00,CLR,,0.00,WeatherDisplay:10.37,2013-09-17 22:05:00,
2013-09-18 00:10:00,63.3,59.4,29.58,NE,45,0.0,2.0,87,0.00,CLR,,0.00,WeatherDisplay:10.37,2013-09-17 22:10:00,
2013-09-18 00:15:00,63.1,59.2,29.58,NE,51,1.0,2.0,87,0.00,CLR,,0.00,WeatherDisplay:10.37,2013-09-17 22:15:00,
2013-09-18 00:20:00,63.1,59.2,29.58,ENE,76,1.0,2.0,87,0.00,CLR,,0.00,WeatherDisplay:10.37,2013-09-17 22:20:00,
2013-09-18 00:25:00,63.1,59.2,29.58,East,90,1.0,2.0,87,0.00,CLR,,0.00,WeatherDisplay:10.37,2013-09-17 22:25:00,
2013-09-18 00:30:00,63.0,59.0,29.58,East,90,0.0,2.0,87,0.00,CLR,,0.00,WeatherDisplay:10.37,2013-09-17 22:30:00,
2013-09-18 00:35:00,63.0,59.0,29.58,East,90,0.0,2.0,87,0.00,CLR,,0.00,WeatherDisplay:10.37,2013-09-17 22:35:00,
2013-09-18 00:40:00,63.0,59.0,29.58,East,90,0.0,2.0,87,0.00,CLR,,0.00,WeatherDisplay:10.37,2013-09-17 22:40:00,
2013-09-18 00:45:00,62.6,58.7,29.58,East,90,0.0,2.0,87,0.00,CLR,,0.00,WeatherDisplay:10.37,2013-09-17 22:45:00,
2013-09-18 00:50:00,62.6,58.7,29.58,East,90,0.0,2.0,87,0.00,CLR,,0.00,WeatherDisplay:10.37,2013-09-17 22:50:00,
2013-09-18 00:55:00,62.6,58.7,29.58,East,90,0.0,2.0,87,0.00,CLR,,0.00,WeatherDisplay:10.37,2013-09-17 22:55:00,
2013-09-18 01:00:00,62.4,58.8,29.58,East,90,0.0,2.0,88,0.00,CLR,,0.00,WeatherDisplay:10.37,2013-09-17 23:00:00,
2013-09-18 01:05:00,62.4,58.8,29.58,East,90,0.0,1.0,88,0.00,CLR,,0.00,WeatherDisplay:10.37,2013-09-17 23:05:00,
2013-09-18 01:10:00,62.4,58.8,29.58,East,90,0.0,1.0,88,0.00,CLR,,0.00,WeatherDisplay:10.37,2013-09-17 23:10:00,
2013-09-18 01:15:00,62.2,58.6,29.59,East,90,0.0,1.0,88,0.00,CLR,,0.00,WeatherDisplay:10.37,2013-09-17 23:15:00,
2013-09-18 01:20:00,62.2,58.6,29.59,West,270,0.0,1.0,88,0.00,CLR,,0.00,WeatherDisplay:10.37,2013-09-17 23:20:00,
2013-09-18 01:25:00,62.2,58.6,29.59,West,270,0.0,1.0,88,0.00,CLR,,0.00,WeatherDisplay:10.37,2013-09-17 23:25:00,
2013-09-18 01:30:00,62.2,58.6,29.58,West,274,0.0,2.0,88,0.00,CLR,,0.00,WeatherDisplay:10.37,2013-09-17 23:30:00,
2013-09-18 01:35:00,62.2,58.6,29.58,WNW,297,0.0,2.0,88,0.00,CLR,,0.00,WeatherDisplay:10.37,2013-09-17 23:35:00,
2013-09-18 01:40:00,62.2,58.6,29.58,NW,315,0.0,2.0,88,0.00,CLR,,0.00,WeatherDisplay:10.37,2013-09-17 23:40:00,
2013-09-18 01:45:00,62.4,59.1,29.59,NW,315,1.0,2.0,89,0.00,CLR,,0.00,WeatherDisplay:10.37,2013-09-17 23:45:00,
2013-09-18 01:50:00,62.4,59.1,29.59,NW,315,1.0,2.0,89,0.00,CLR,,0.00,WeatherDisplay:10.37,2013-09-17 23:50:00,
2013-09-18 01:55:00,62.4,59.1,29.59,NW,315,1.0,2.0,89,0.00,CLR,,0.00,WeatherDisplay:10.37,2013-09-17 23:55:00,
2013-09-18 02:00:00,62.2,59.0,29.59,NW,322,0.0,2.0,89,0.00,CLR,,0.00,WeatherDisplay:10.37,2013-09-18 00:00:00,
2013-09-18 02:05:00,62.2,59.0,29.59,NNW,348,0.0,2.0,89,0.00,CLR,,0.00,WeatherDisplay:10.37,2013-09-18 00:05:00,
2013-09-18 02:10:00,62.2,59.0,29.59,North,0,0.0,2.0,89,0.00,CLR,,0.00,WeatherDisplay:10.37,2013-09-18 00:10:00,
2013-09-18 02:15:00,62.1,58.8,29.60,North,6,0.0,2.0,89,0.00,CLR,,0.00,WeatherDisplay:10.37,2013-09-18 00:15:00,
2013-09-18 02:20:00,62.1,58.8,29.60,NE,56,0.0,0.0,89,0.00,CLR,,0.00,WeatherDisplay:10.37,2013-09-18 00:20:00,
2013-09-18 02:25:00,62.1,58.8,29.60,East,90,0.0,0.0,89,0.00,CLR,,0.00,WeatherDisplay:10.37,2013-09-18 00:25:00,
2013-09-18 02:30:00,62.1,58.8,29.60,East,85,0.0,0.0,89,0.00,CLR,,0.00,WeatherDisplay:10.37,2013-09-18 00:30:00,
2013-09-18 02:35:00,62.1,58.8,29.60,North,357,0.0,0.0,89,0.00,CLR,,0.00,WeatherDisplay:10.37,2013-09-18 00:35:00,
2013-09-18 02:40:00,62.1,58.8,29.60,NW,315,0.0,0.0,89,0.00,CLR,,0.00,WeatherDisplay:10.37,2013-09-18 00:40:00,
2013-09-18 02:45:00,61.9,58.6,29.61,NW,319,0.0,2.0,89,0.00,CLR,,0.00,WeatherDisplay:10.37,2013-09-18 00:45:00,
2013-09-18 02:50:00,61.9,58.6,29.61,NNW,342,0.0,2.0,89,0.00,CLR,,0.00,WeatherDisplay:10.37,2013-09-18 00:50:00,
2013-09-18 02:55:00,61.9,58.6,29.61,North,0,0.0,2.0,89,0.00,CLR,,0.00,WeatherDisplay:10.37,2013-09-18 00:55:00,
2013-09-18 03:00:00,61.9,58.6,29.61,North,6,0.0,2.0,89,0.00,CLR,,0.00,WeatherDisplay:10.37,2013-09-18 01:00:00,
2013-09-18 03:05:00,61.9,58.6,29.61,NE,56,0.0,1.0,89,0.00,CLR,,0.00,WeatherDisplay:10.37,2013-09-18 01:05:00,
2013-09-18 03:10:00,61.9,58.6,29.61,East,90,0.0,1.0,89,0.00,CLR,,0.00,WeatherDisplay:10.37,2013-09-18 01:10:00,
2013-09-18 03:15:00,62.1,58.8,29.62,East,86,0.0,2.0,89,0.00,CLR,,0.00,WeatherDisplay:10.37,2013-09-18 01:15:00,
2013-09-18 03:20:00,62.1,58.8,29.62,ENE,63,0.0,2.0,89,0.00,CLR,,0.00,WeatherDisplay:10.37,2013-09-18 01:20:00,
2013-09-18 03:25:00,62.1,58.8,29.62,NE,45,0.0,2.0,89,0.00,CLR,,0.00,WeatherDisplay:10.37,2013-09-18 01:25:00,
2013-09-18 03:30:00,62.2,59.0,29.62,NE,45,0.0,2.0,89,0.00,CLR,,0.00,WeatherDisplay:10.37,2013-09-18 01:30:00,
2013-09-18 03:35:00,62.2,59.0,29.62,NE,45,0.0,2.0,89,0.00,CLR,,0.00,WeatherDisplay:10.37,2013-09-18 01:35:00,
2013-09-18 03:40:00,62.2,59.0,29.62,NE,45,0.0,2.0,89,0.00,CLR,,0.00,WeatherDisplay:10.37,2013-09-18 01:40:00,
2013-09-18 03:45:00,63.1,59.8,29.62,NE,41,0.0,2.0,89,0.00,CLR,,0.00,WeatherDisplay:10.37,2013-09-18 01:45:00,
2013-09-18 03:50:00,63.1,59.8,29.62,NNE,18,0.0,1.0,89,0.00,CLR,,0.00,WeatherDisplay:10.37,2013-09-18 01:50:00,
2013-09-18 03:55:00,63.1,59.8,29.62,North,0,0.0,1.0,89,0.00,CLR,,0.00,WeatherDisplay:10.37,2013-09-18 01:55:00,
2013-09-18 04:00:00,64.0,60.7,29.63,North,4,0.0,2.0,89,0.00,CLR,,0.00,WeatherDisplay:10.37,2013-09-18 02:00:00,
2013-09-18 04:05:00,64.0,60.7,29.63,NNE,27,0.0,2.0,89,0.00,CLR,,0.00,WeatherDisplay:10.37,2013-09-18 02:05:00,
2013-09-18 04:10:00,64.0,60.7,29.63,NE,45,0.0,2.0,89,0.00,CLR,,0.00,WeatherDisplay:10.37,2013-09-18 02:10:00,
2013-09-18 04:15:00,64.8,61.1,29.63,NE,39,0.0,2.0,88,0.00,CLR,,0.00,WeatherDisplay:10.37,2013-09-18 02:15:00,
2013-09-18 04:20:00,64.8,61.1,29.63,North,349,0.0,1.0,88,0.00,CLR,,0.00,WeatherDisplay:10.37,2013-09-18 02:20:00,
2013-09-18 04:25:00,64.8,61.1,29.63,NW,315,0.0,1.0,88,0.00,CLR,,0.00,WeatherDisplay:10.37,2013-09-18 02:25:00,
2013-09-18 04:30:00,65.1,61.2,29.64,NW,319,0.0,2.0,87,0.00,CLR,,0.00,WeatherDisplay:10.37,2013-09-18 02:30:00,
2013-09-18 04:35:00,65.1,61.2,29.64,NNW,342,0.0,2.0,87,0.00,CLR,,0.00,WeatherDisplay:10.37,2013-09-18 02:35:00,
2013-09-18 04:40:00,65.1,61.2,29.64,North,0,0.0,2.0,87,0.00,CLR,,0.00,WeatherDisplay:10.37,2013-09-18 02:40:00,
2013-09-18 04:45:00,65.8,61.5,29.64,North,0,1.0,2.0,86,0.00,CLR,,0.00,WeatherDisplay:10.37,2013-09-18 02:45:00,
2013-09-18 04:50:00,65.8,61.5,29.64,North,0,1.0,2.0,86,0.00,CLR,,0.00,WeatherDisplay:10.37,2013-09-18 02:50:00,
2013-09-18 04:55:00,65.8,61.5,29.64,North,0,1.0,2.0,86,0.00,CLR,,0.00,WeatherDisplay:10.37,2013-09-18 02:55:00,
2013-09-18 05:00:00,67.1,62.4,29.64,NNW,348,1.0,4.0,85,0.00,CLR,,0.00,WeatherDisplay:10.37,2013-09-18 03:00:00,
2013-09-18 05:05:00,67.1,62.4,29.64,NW,305,1.0,4.0,85,0.00,CLR,,0.00,WeatherDisplay:10.37,2013-09-18 03:05:00,
2013-09-18 05:10:00,67.1,62.4,29.64,WNW,292,1.0,4.0,85,0.00,CLR,,0.00,WeatherDisplay:10.37,2013-09-18 03:10:00,
2013-09-18 05:15:00,68.2,63.2,29.65,WNW,290,0.0,4.0,84,0.00,CLR,,0.00,WeatherDisplay:10.37,2013-09-18 03:15:00,
2013-09-18 05:20:00,68.2,63.2,29.65,West,280,0.0,2.0,84,0.00,CLR,,0.00,WeatherDisplay:10.37,2013-09-18 03:20:00,
2013-09-18 05:25:00,68.2,63.2,29.65,West,270,0.0,2.0,84,0.00,CLR,,0.00,WeatherDisplay:10.37,2013-09-18 03:25:00,
2013-09-18 05:30:00,69.6,64.2,29.65,West,266,0.0,2.0,83,0.00,CLR,,0.00,WeatherDisplay:10.37,2013-09-18 03:30:00,
2013-09-18 05:35:00,69.6,64.2,29.65,WSW,243,0.0,1.0,83,0.00,CLR,,0.00,WeatherDisplay:10.37,2013-09-18 03:35:00,
2013-09-18 05:40:00,69.6,64.2,29.65,SW,225,0.0,1.0,83,0.00,CLR,,0.00,WeatherDisplay:10.37,2013-09-18 03:40:00,
2013-09-18 05:45:00,71.1,64.9,29.65,SW,222,1.0,2.0,81,0.00,CLR,,0.00,WeatherDisplay:10.37,2013-09-18 03:45:00,
2013-09-18 05:50:00,71.1,64.9,29.65,SSE,167,1.0,2.0,81,0.00,CLR,,0.00,WeatherDisplay:10.37,2013-09-18 03:50:00,
2013-09-18 05:55:00,71.1,64.9,29.65,East,90,1.0,2.0,81,0.00,CLR,,0.00,WeatherDisplay:10.37,2013-09-18 03:55:00,
2013-09-18 06:00:00,72.0,64.7,29.65,East,94,1.0,2.0,78,0.00,CLR,,0.00,WeatherDisplay:10.37,2013-09-18 04:00:00,
2013-09-18 06:05:00,72.0,64.7,29.65,ESE,117,1.0,2.0,78,0.00,CLR,,0.00,WeatherDisplay:10.37,2013-09-18 04:05:00,
2013-09-18 06:10:00,72.0,64.7,29.65,SE,135,1.0,2.0,78,0.00,CLR,,0.00,WeatherDisplay:10.37,2013-09-18 04:10:00,
2013-09-18 06:15:00,73.2,65.6,29.65,SE,131,1.0,2.0,77,0.00,CLR,,0.00,WeatherDisplay:10.37,2013-09-18 04:15:00,
2013-09-18 06:20:00,73.2,65.6,29.65,ESE,108,1.0,2.0,77,0.00,CLR,,0.00,WeatherDisplay:10.37,2013-09-18 04:20:00,
2013-09-18 06:25:00,73.2,65.6,29.65,East,90,1.0,2.0,77,0.00,CLR,,0.00,WeatherDisplay:10.37,2013-09-18 04:25:00,
2013-09-18 06:30:00,73.4,65.0,29.65,East,86,1.0,2.0,75,0.00,CLR,,0.00,WeatherDisplay:10.37,2013-09-18 04:30:00,
2013-09-18 06:35:00,73.4,65.0,29.65,ENE,63,1.0,2.0,75,0.00,CLR,,0.00,WeatherDisplay:10.37,2013-09-18 04:35:00,
2013-09-18 06:40:00,73.4,65.0,29.65,NE,45,1.0,2.0,75,0.00,CLR,,0.00,WeatherDisplay:10.37,2013-09-18 04:40:00,
2013-09-18 06:45:00,72.7,64.3,29.65,NNE,25,2.0,4.0,75,0.00,CLR,,0.00,WeatherDisplay:10.37,2013-09-18 04:45:00,
2013-09-18 06:50:00,72.7,64.3,29.65,West,279,2.0,4.0,75,0.00,CLR,,0.00,WeatherDisplay:10.37,2013-09-18 04:50:00,
2013-09-18 06:55:00,72.7,64.3,29.65,West,270,2.0,4.0,75,0.00,CLR,,0.00,WeatherDisplay:10.37,2013-09-18 04:55:00,
2013-09-18 07:00:00,72.7,64.3,29.65,West,270,0.0,4.0,75,0.00,CLR,,0.00,WeatherDisplay:10.37,2013-09-18 05:00:00,
2013-09-18 07:05:00,72.7,64.3,29.65,West,270,0.0,2.0,75,0.00,CLR,,0.00,WeatherDisplay:10.37,2013-09-18 05:05:00,
2013-09-18 07:10:00,72.7,64.3,29.65,West,270,0.0,2.0,75,0.00,CLR,,0.00,WeatherDisplay:10.37,2013-09-18 05:10:00,
2013-09-18 07:15:00,72.9,64.5,29.65,West,270,1.0,2.0,75,0.00,CLR,,0.00,WeatherDisplay:10.37,2013-09-18 05:15:00,
2013-09-18 07:20:00,72.9,64.5,29.65,West,270,1.0,2.0,75,0.00,CLR,,0.00,WeatherDisplay:10.37,2013-09-18 05:20:00,
2013-09-18 07:25:00,72.9,64.5,29.65,East,90,1.0,2.0,75,0.00,CLR,,0.00,WeatherDisplay:10.37,2013-09-18 05:25:00,
2013-09-18 07:30:00,74.1,65.7,29.65,East,96,1.0,2.0,75,0.00,CLR,,0.00,WeatherDisplay:10.37,2013-09-18 05:30:00,
2013-09-18 07:35:00,74.1,65.7,29.65,SE,146,1.0,2.0,75,0.00,CLR,,0.00,WeatherDisplay:10.37,2013-09-18 05:35:00,
2013-09-18 07:40:00,74.1,65.7,29.65,South,180,1.0,2.0,75,0.00,CLR,,0.00,WeatherDisplay:10.37,2013-09-18 05:40:00,
2013-09-18 07:45:00,74.1,65.3,29.65,South,180,2.0,3.0,74,0.00,CLR,,0.00,WeatherDisplay:10.37,2013-09-18 05:45:00,
2013-09-18 07:50:00,74.1,65.3,29.65,North,0,2.0,3.0,74,0.00,CLR,,0.00,WeatherDisplay:10.37,2013-09-18 05:50:00,
2013-09-18 07:55:00,74.1,65.3,29.65,North,0,2.0,3.0,74,0.00,CLR,,0.00,WeatherDisplay:10.37,2013-09-18 05:55:00,
2013-09-18 08:00:00,73.9,65.1,29.64,North,354,2.0,4.0,74,0.00,CLR,,0.00,WeatherDisplay:10.37,2013-09-18 06:00:00,
2013-09-18 08:05:00,73.9,65.1,29.64,NW,304,2.0,4.0,74,0.00,CLR,,0.00,WeatherDisplay:10.37,2013-09-18 06:05:00,
2013-09-18 09:45:00,74.8,64.0,29.62,SE,136,2.0,4.0,69,0.00,CLR,,0.00,WeatherDisplay:10.37,2013-09-18 07:45:00,
2013-09-18 09:50:00,74.8,64.0,29.62,East,97,2.0,4.0,69,0.00,CLR,,0.00,WeatherDisplay:10.37,2013-09-18 07:50:00,
2013-09-18 09:55:00,74.8,64.0,29.62,East,90,2.0,4.0,69,0.00,CLR,,0.00,WeatherDisplay:10.37,2013-09-18 07:55:00,
2013-09-18 10:00:00,75.0,64.2,29.62,East,90,5.0,6.0,69,0.00,CLR,,0.00,WeatherDisplay:10.37,2013-09-18 08:00:00,
2013-09-18 10:05:00,75.0,64.2,29.62,West,270,5.0,6.0,69,0.00,CLR,,0.00,WeatherDisplay:10.37,2013-09-18 08:05:00,
2013-09-18 10:10:00,75.0,64.2,29.62,West,270,5.0,6.0,69,0.00,CLR,,0.00,WeatherDisplay:10.37,2013-09-18 08:10:00,
2013-09-18 10:15:00,76.3,65.4,29.62,WNW,293,5.0,8.0,69,0.00,CLR,,0.00,WeatherDisplay:10.37,2013-09-18 08:15:00,
2013-09-18 10:20:00,76.3,65.4,29.62,NNW,346,5.0,8.0,69,0.00,CLR,,0.00,WeatherDisplay:10.37,2013-09-18 08:20:00,
2013-09-18 10:25:00,76.3,65.4,29.62,North,0,5.0,8.0,69,0.00,CLR,,0.00,WeatherDisplay:10.37,2013-09-18 08:25:00,
2013-09-18 10:30:00,76.6,64.9,29.62,NNW,340,3.0,8.0,67,0.00,CLR,,0.00,WeatherDisplay:10.37,2013-09-18 08:30:00,
2013-09-18 10:35:00,76.6,64.9,29.62,WNW,286,3.0,5.0,67,0.00,CLR,,0.00,WeatherDisplay:10.37,2013-09-18 08:35:00,
2013-09-18 10:40:00,76.6,64.9,29.62,West,270,3.0,5.0,67,0.00,CLR,,0.00,WeatherDisplay:10.37,2013-09-18 08:40:00,
2013-09-18 10:45:00,76.6,64.4,29.62,West,270,6.0,11.0,66,0.00,CLR,,0.00,WeatherDisplay:10.37,2013-09-18 08:45:00,
2013-09-18 10:50:00,76.6,64.4,29.62,West,270,6.0,11.0,66,0.00,CLR,,0.00,WeatherDisplay:10.37,2013-09-18 08:50:00,
2013-09-18 10:55:00,76.6,64.4,29.62,West,270,6.0,11.0,66,0.00,CLR,,0.00,WeatherDisplay:10.37,2013-09-18 08:55:00,
2013-09-18 11:00:00,75.7,64.4,29.62,West,277,6.0,11.0,68,0.00,CLR,,0.00,WeatherDisplay:10.37,2013-09-18 09:00:00,
2013-09-18 11:05:00,75.7,64.4,29.62,WNW,288,6.0,11.0,68,0.00,CLR,,0.00,WeatherDisplay:10.37,2013-09-18 09:05:00,
2013-09-18 11:10:00,75.7,64.4,29.62,WNW,292,6.0,11.0,68,0.00,CLR,,0.00,WeatherDisplay:10.37,2013-09-18 09:10:00,
2013-09-18 11:15:00,75.6,64.7,29.62,WNW,285,6.0,11.0,69,0.00,CLR,,0.00,WeatherDisplay:10.37,2013-09-18 09:15:00,
2013-09-18 11:20:00,75.6,64.7,29.62,West,274,6.0,9.0,69,0.00,CLR,,0.00,WeatherDisplay:10.37,2013-09-18 09:20:00,
2013-09-18 11:25:00,75.6,64.7,29.62,West,270,6.0,9.0,69,0.00,CLR,,0.00,WeatherDisplay:10.37,2013-09-18 09:25:00,
2013-09-18 11:30:00,75.6,64.7,29.62,West,270,6.0,9.0,69,0.00,CLR,,0.00,WeatherDisplay:10.37,2013-09-18 09:30:00,
2013-09-18 11:35:00,75.6,64.7,29.62,West,270,6.0,9.0,69,0.00,CLR,,0.00,WeatherDisplay:10.37,2013-09-18 09:35:00,
2013-09-18 11:40:00,75.6,64.7,29.62,West,270,6.0,9.0,69,0.00,CLR,,0.00,WeatherDisplay:10.37,2013-09-18 09:40:00,
2013-09-18 11:45:00,75.2,63.9,29.62,West,263,6.0,10.0,68,0.00,CLR,,0.00,WeatherDisplay:10.37,2013-09-18 09:45:00,
2013-09-18 11:50:00,75.2,63.9,29.62,WSW,252,6.0,10.0,68,0.00,CLR,,0.00,WeatherDisplay:10.37,2013-09-18 09:50:00,
2013-09-18 11:55:00,75.2,63.9,29.62,WSW,248,6.0,10.0,68,0.00,CLR,,0.00,WeatherDisplay:10.37,2013-09-18 09:55:00,
2013-09-18 12:00:00,75.4,64.5,29.62,WSW,255,6.0,12.0,69,0.00,CLR,,0.00,WeatherDisplay:10.37,2013-09-18 10:00:00,
2013-09-18 12:05:00,75.4,64.5,29.62,West,266,6.0,12.0,69,0.00,CLR,,0.00,WeatherDisplay:10.37,2013-09-18 10:05:00,
2013-09-18 12:09:00,73.9,65.1,29.64,West,270,4.6,4.6,74,0.00,CLR,,0.00,WeatherDisplay:10.37,2013-09-18 10:09:00,
2013-09-18 12:10:00,73.9,65.1,29.64,West,270,4.6,4.6,74,0.00,CLR,,0.00,WeatherDisplay:10.37,2013-09-18 10:10:00,
2013-09-18 12:15:00,74.1,65.3,29.64,NW,315,3.5,0.0,74,0.00,CLR,,0.00,WeatherDisplay:10.37,2013-09-18 10:15:00,
2013-09-18 12:20:00,74.1,64.9,29.64,East,90,2.3,2.3,73,0.00,CLR,,0.00,WeatherDisplay:10.37,2013-09-18 10:20:00,
2013-09-18 12:25:00,74.3,64.7,29.65,NE,45,1.2,0.0,72,0.00,CLR,,0.00,WeatherDisplay:10.37,2013-09-18 10:25:00,
2013-09-18 12:30:00,74.3,64.7,29.64,ENE,68,1.2,0.0,72,0.00,CLR,,0.00,WeatherDisplay:10.37,2013-09-18 10:30:00,
2013-09-18 12:35:00,74.5,64.5,29.64,ESE,112,3.5,3.5,71,0.00,CLR,,0.00,WeatherDisplay:10.37,2013-09-18 10:35:00,
2013-09-18 12:40:00,74.8,64.8,29.64,SE,135,4.6,4.6,71,0.00,CLR,,0.00,WeatherDisplay:10.37,2013-09-18 10:40:00,
2013-09-18 12:45:00,75.4,65.3,29.64,West,270,8.1,8.1,71,0.00,CLR,,0.00,WeatherDisplay:10.37,2013-09-18 10:45:00,
2013-09-18 12:50:00,75.9,65.8,29.64,SSW,202,13.8,13.8,71,0.00,CLR,,0.00,WeatherDisplay:10.37,2013-09-18 10:50:00,
2013-09-18 12:55:00,76.1,65.6,29.64,SSW,202,3.5,3.5,70,0.00,CLR,,0.00,WeatherDisplay:10.37,2013-09-18 10:55:00,
2013-09-18 13:00:00,76.1,66.0,29.64,West,270,4.6,4.6,71,0.00,CLR,,0.00,WeatherDisplay:10.37,2013-09-18 11:00:00,
2013-09-18 13:05:00,76.6,66.1,29.64,South,180,5.8,5.8,70,0.00,CLR,,0.00,WeatherDisplay:10.37,2013-09-18 11:05:00,
2013-09-18 13:10:00,76.6,66.1,29.64,SW,225,6.9,6.9,70,0.00,CLR,,0.00,WeatherDisplay:10.37,2013-09-18 11:10:00,
2013-09-18 13:15:00,76.3,65.8,29.63,North,0,3.5,3.5,70,0.00,CLR,,0.00,WeatherDisplay:10.37,2013-09-18 11:15:00,
2013-09-18 13:20:00,76.3,65.8,29.64,SW,225,10.4,10.4,70,0.00,CLR,,0.00,WeatherDisplay:10.37,2013-09-18 11:20:00,
2013-09-18 13:25:00,75.6,65.1,29.63,SE,135,8.1,8.1,70,0.00,CLR,,0.00,WeatherDisplay:10.37,2013-09-18 11:25:00,
2013-09-18 13:30:00,75.6,65.1,29.63,SE,135,9.2,9.2,70,0.00,CLR,,0.00,WeatherDisplay:10.37,2013-09-18 11:30:00,
2013-09-18 13:35:00,75.6,65.1,29.63,SE,135,10.4,10.4,70,0.00,CLR,,0.00,WeatherDisplay:10.37,2013-09-18 11:35:00,
2013-09-18 13:40:00,75.4,64.9,29.63,SE,135,12.7,12.7,70,0.00,CLR,,0.00,WeatherDisplay:10.37,2013-09-18 11:40:00,
2013-09-18 13:45:00,73.8,62.5,29.64,West,261,3.0,11.0,68,0.00,CLR,,0.00,WeatherDisplay:10.37,2013-09-18 11:45:00,
2013-09-18 13:50:00,73.8,62.5,29.64,WSW,237,3.0,10.0,68,0.00,CLR,,0.00,WeatherDisplay:10.37,2013-09-18 11:50:00,
2013-09-18 13:55:00,73.8,62.5,29.64,SW,225,3.0,10.0,68,0.00,CLR,,0.00,WeatherDisplay:10.37,2013-09-18 11:55:00,
2013-09-18 14:00:00,73.4,62.6,29.64,WSW,238,3.0,10.0,69,0.00,CLR,,0.00,WeatherDisplay:10.37,2013-09-18 12:00:00,
2013-09-18 14:05:00,73.4,62.6,29.64,West,261,3.0,6.0,69,0.00,CLR,,0.00,WeatherDisplay:10.37,2013-09-18 12:05:00,
2013-09-18 14:10:00,73.4,62.6,29.64,West,270,3.0,6.0,69,0.00,CLR,,0.00,WeatherDisplay:10.37,2013-09-18 12:10:00,
2013-09-18 14:15:00,73.0,62.7,29.64,West,260,1.0,6.0,70,0.00,CLR,,0.00,WeatherDisplay:10.37,2013-09-18 12:15:00,
2013-09-18 14:20:00,73.0,62.7,29.64,SSW,194,1.0,4.0,70,0.00,CLR,,0.00,WeatherDisplay:10.37,2013-09-18 12:20:00,
2013-09-18 14:25:00,73.0,62.7,29.64,SSE,158,1.0,4.0,70,0.00,CLR,,0.00,WeatherDisplay:10.37,2013-09-18 12:25:00,
2013-09-18 14:30:00,72.3,62.4,29.64,SW,230,6.0,10.0,71,0.00,CLR,,0.00,WeatherDisplay:10.37,2013-09-18 12:30:00,
2013-09-18 14:35:00,72.3,62.4,29.64,West,266,6.0,10.0,71,0.00,CLR,,0.00,WeatherDisplay:10.37,2013-09-18 12:35:00,
2013-09-18 14:40:00,72.3,62.4,29.64,West,270,6.0,10.0,71,0.00,CLR,,0.00,WeatherDisplay:10.37,2013-09-18 12:40:00,
2013-09-18 14:45:00,71.8,62.3,29.64,West,270,1.0,10.0,72,0.00,CLR,,0.00,WeatherDisplay:10.37,2013-09-18 12:45:00,
2013-09-18 14:50:00,71.8,62.3,29.64,West,270,1.0,2.0,72,0.00,CLR,,0.00,WeatherDisplay:10.37,2013-09-18 12:50:00,
2013-09-18 14:55:00,71.8,62.3,29.64,West,270,1.0,2.0,72,0.00,CLR,,0.00,WeatherDisplay:10.37,2013-09-18 12:55:00,
2013-09-18 15:00:00,71.4,62.3,29.64,WSW,240,3.0,5.0,73,0.00,CLR,,0.00,WeatherDisplay:10.37,2013-09-18 13:00:00,
2013-09-18 15:05:00,71.4,62.3,29.64,SW,227,3.0,5.0,73,0.00,CLR,,0.00,WeatherDisplay:10.37,2013-09-18 13:05:00,
2013-09-18 15:10:00,71.4,62.3,29.64,SW,225,3.0,5.0,73,0.00,CLR,,0.00,WeatherDisplay:10.37,2013-09-18 13:10:00,
2013-09-18 15:15:00,71.2,62.5,29.63,SW,229,1.0,5.0,74,0.00,CLR,,0.00,WeatherDisplay:10.37,2013-09-18 13:15:00,
2013-09-18 15:20:00,71.2,62.5,29.63,WSW,240,1.0,2.0,74,0.00,CLR,,0.00,WeatherDisplay:10.37,2013-09-18 13:20:00,
2013-09-18 15:25:00,71.2,62.5,29.63,WSW,248,1.0,2.0,74,0.00,CLR,,0.00,WeatherDisplay:10.37,2013-09-18 13:25:00,
2013-09-18 15:30:00,71.1,62.4,29.63,WSW,253,0.0,2.0,74,0.00,CLR,,0.00,WeatherDisplay:10.37,2013-09-18 13:30:00,
2013-09-18 15:35:00,71.1,62.4,29.63,West,264,0.0,2.0,74,0.00,CLR,,0.00,WeatherDisplay:10.37,2013-09-18 13:35:00,
2013-09-18 15:40:00,71.1,62.4,29.63,West,270,0.0,2.0,74,0.00,CLR,,0.00,WeatherDisplay:10.37,2013-09-18 13:40:00,
2013-09-18 15:45:00,70.7,62.4,29.63,West,261,1.0,2.0,75,0.00,CLR,,0.00,WeatherDisplay:10.37,2013-09-18 13:45:00,
2013-09-18 15:50:00,70.7,62.4,29.63,WSW,238,1.0,2.0,75,0.00,CLR,,0.00,WeatherDisplay:10.37,2013-09-18 13:50:00,
2013-09-18 15:55:00,70.7,62.4,29.63,SW,225,1.0,2.0,75,0.00,CLR,,0.00,WeatherDisplay:10.37,2013-09-18 13:55:00,
2013-09-18 16:00:00,70.3,62.4,29.63,SSW,206,0.0,2.0,76,0.00,CLR,,0.00,WeatherDisplay:10.37,2013-09-18 14:00:00,
2013-09-18 16:05:00,70.3,62.4,29.63,South,185,0.0,0.0,76,0.00,CLR,,0.00,WeatherDisplay:10.37,2013-09-18 14:05:00,
2013-09-18 16:10:00,70.3,62.4,29.63,South,180,0.0,0.0,76,0.00,CLR,,0.00,WeatherDisplay:10.37,2013-09-18 14:10:00,
2013-09-18 16:15:00,70.3,62.4,29.63,SSE,161,0.0,1.0,76,0.00,CLR,,0.00,WeatherDisplay:10.37,2013-09-18 14:15:00,
2013-09-18 16:20:00,70.3,62.4,29.63,SE,124,0.0,1.0,76,0.00,CLR,,0.00,WeatherDisplay:10.37,2013-09-18 14:20:00,
2013-09-18 16:25:00,70.3,62.4,29.63,ESE,112,0.0,1.0,76,0.00,CLR,,0.00,WeatherDisplay:10.37,2013-09-18 14:25:00,
2013-09-18 16:30:00,70.2,62.6,29.63,ESE,119,0.0,1.0,77,0.00,CLR,,0.00,WeatherDisplay:10.37,2013-09-18 14:30:00,
2013-09-18 16:35:00,70.2,62.6,29.63,SE,130,0.0,1.0,77,0.00,CLR,,0.00,WeatherDisplay:10.37,2013-09-18 14:35:00,
2013-09-18 16:40:00,70.2,62.6,29.63,SE,135,0.0,1.0,77,0.00,CLR,,0.00,WeatherDisplay:10.37,2013-09-18 14:40:00,
2013-09-18 16:45:00,69.8,62.3,29.63,SSE,148,0.0,1.0,77,0.00,CLR,,0.00,WeatherDisplay:10.37,2013-09-18 14:45:00,
2013-09-18 16:50:00,69.8,62.3,29.63,South,171,0.0,1.0,77,0.00,CLR,,0.00,WeatherDisplay:10.37,2013-09-18 14:50:00,
2013-09-18 16:55:00,69.8,62.3,29.63,South,180,0.0,1.0,77,0.00,CLR,,0.00,WeatherDisplay:10.37,2013-09-18 14:55:00,
2013-09-18 17:00:00,69.8,62.6,29.64,SSE,167,0.0,1.0,78,0.00,CLR,,0.00,WeatherDisplay:10.37,2013-09-18 15:00:00,
2013-09-18 17:05:00,69.8,62.6,29.64,SE,144,0.0,1.0,78,0.00,CLR,,0.00,WeatherDisplay:10.37,2013-09-18 15:05:00,
2013-09-18 17:10:00,69.8,62.6,29.64,SE,135,0.0,1.0,78,0.00,CLR,,0.00,WeatherDisplay:10.37,2013-09-18 15:10:00,
2013-09-18 17:15:00,70.0,62.8,29.64,SSE,148,0.0,1.0,78,0.00,CLR,,0.00,WeatherDisplay:10.37,2013-09-18 15:15:00,
2013-09-18 17:20:00,70.0,62.8,29.64,South,171,0.0,1.0,78,0.00,CLR,,0.00,WeatherDisplay:10.37,2013-09-18 15:20:00,
2013-09-18 17:30:00,70.2,63.0,29.64,South,180,0.0,2.0,78,0.00,CLR,,0.00,WeatherDisplay:10.37,2013-09-18 15:30:00,
2013-09-18 17:35:00,70.2,63.0,29.64,South,180,0.0,2.0,78,0.00,CLR,,0.00,WeatherDisplay:10.37,2013-09-18 15:35:00,
2013-09-18 17:40:00,70.2,63.0,29.64,South,180,0.0,2.0,78,0.00,CLR,,0.00,WeatherDisplay:10.37,2013-09-18 15:40:00,
2013-09-18 17:45:00,70.3,63.2,29.64,South,180,1.0,2.0,78,0.00,CLR,,0.00,WeatherDisplay:10.37,2013-09-18 15:45:00,
2013-09-18 17:50:00,70.3,63.2,29.64,South,180,1.0,2.0,78,0.00,CLR,,0.00,WeatherDisplay:10.37,2013-09-18 15:50:00,
2013-09-18 17:55:00,70.3,63.2,29.64,South,180,1.0,2.0,78,0.00,CLR,,0.00,WeatherDisplay:10.37,2013-09-18 15:55:00,
2013-09-18 18:00:00,70.3,63.5,29.63,SSE,161,0.0,2.0,79,0.00,CLR,,0.00,WeatherDisplay:10.37,2013-09-18 16:00:00,
2013-09-18 18:05:00,70.3,63.5,29.63,SE,140,0.0,0.0,79,0.00,CLR,,0.00,WeatherDisplay:10.37,2013-09-18 16:05:00,
2013-09-18 18:10:00,70.3,63.5,29.63,SE,135,0.0,0.0,79,0.00,CLR,,0.00,WeatherDisplay:10.37,2013-09-18 16:10:00,
2013-09-18 18:15:00,69.6,63.2,29.63,SSE,148,0.0,1.0,80,0.00,CLR,,0.00,WeatherDisplay:10.37,2013-09-18 16:15:00,
2013-09-18 18:20:00,69.6,63.2,29.63,South,171,0.0,1.0,80,0.00,CLR,,0.00,WeatherDisplay:10.37,2013-09-18 16:20:00,
2013-09-18 18:25:00,69.6,63.2,29.63,South,180,0.0,1.0,80,0.00,CLR,,0.00,WeatherDisplay:10.37,2013-09-18 16:25:00,
2013-09-18 18:30:00,69.3,63.2,29.63,SSE,157,0.0,1.0,81,0.00,CLR,,0.00,WeatherDisplay:10.37,2013-09-18 16:30:00,
2013-09-18 18:35:00,69.3,63.2,29.63,ESE,104,0.0,0.0,81,0.00,CLR,,0.00,WeatherDisplay:10.37,2013-09-18 16:35:00,
2013-09-18 18:40:00,69.3,63.2,29.63,East,90,0.0,0.0,81,0.00,CLR,,0.00,WeatherDisplay:10.37,2013-09-18 16:40:00,
2013-09-18 18:45:00,69.3,63.5,29.63,ENE,66,0.0,1.0,82,0.01,RA,,0.01,WeatherDisplay:10.37,2013-09-18 16:45:00,
2013-09-18 18:50:00,69.3,63.5,29.63,NNW,327,0.0,1.0,82,0.01,RA,,0.01,WeatherDisplay:10.37,2013-09-18 16:50:00,
2013-09-18 18:55:00,69.3,63.5,29.63,NW,315,0.0,1.0,82,0.00,CLR,,0.01,WeatherDisplay:10.37,2013-09-18 16:55:00,
2013-09-18 19:00:00,69.3,64.2,29.63,NW,315,1.0,2.0,84,0.00,CLR,,0.01,WeatherDisplay:10.37,2013-09-18 17:00:00,
2013-09-18 19:05:00,69.3,64.2,29.63,SE,135,1.0,2.0,84,0.00,CLR,,0.01,WeatherDisplay:10.37,2013-09-18 17:05:00,
2013-09-18 19:10:00,69.3,64.2,29.63,SE,135,1.0,2.0,84,0.00,CLR,,0.01,WeatherDisplay:10.37,2013-09-18 17:10:00,
2013-09-18 19:15:00,68.9,64.2,29.62,SE,135,1.0,2.0,85,0.00,CLR,,0.01,WeatherDisplay:10.37,2013-09-18 17:15:00,
2013-09-18 19:20:00,68.9,64.2,29.62,SE,135,1.0,2.0,85,0.00,CLR,,0.01,WeatherDisplay:10.37,2013-09-18 17:20:00,
2013-09-18 19:25:00,68.9,64.2,29.62,SE,135,1.0,2.0,85,0.00,CLR,,0.01,WeatherDisplay:10.37,2013-09-18 17:25:00,
2013-09-18 19:30:00,68.5,64.2,29.63,South,182,0.0,2.0,86,0.01,RA,,0.02,WeatherDisplay:10.37,2013-09-18 17:30:00,
2013-09-18 19:35:00,68.5,64.2,29.63,West,263,0.0,1.0,86,0.01,RA,,0.02,WeatherDisplay:10.37,2013-09-18 17:35:00,
2013-09-18 19:40:00,68.5,64.2,29.63,West,270,0.0,1.0,86,0.00,CLR,,0.02,WeatherDisplay:10.37,2013-09-18 17:40:00,
2013-09-18 19:45:00,68.5,64.2,29.63,WSW,246,0.0,1.0,86,0.01,RA,,0.04,WeatherDisplay:10.37,2013-09-18 17:45:00,
2013-09-18 19:50:00,68.5,64.2,29.63,SSE,147,0.0,0.0,86,0.01,RA,,0.04,WeatherDisplay:10.37,2013-09-18 17:50:00,
2013-09-18 19:55:00,68.5,64.2,29.63,SE,135,0.0,0.0,86,0.00,CLR,,0.04,WeatherDisplay:10.37,2013-09-18 17:55:00,
2013-09-18 20:00:00,68.4,64.3,29.63,SE,135,0.0,2.0,87,0.00,CLR,,0.04,WeatherDisplay:10.37,2013-09-18 18:00:00,
2013-09-18 20:05:00,68.4,64.3,29.63,SE,135,0.0,2.0,87,0.00,RA,,0.00,WeatherDisplay:10.37,2013-09-18 18:05:00,
2013-09-18 20:10:00,68.4,64.3,29.63,SE,135,0.0,2.0,87,0.00,RA,,0.00,WeatherDisplay:10.37,2013-09-18 18:10:00,
2013-09-18 20:20:00,68.4,64.7,29.63,East,99,0.0,1.0,88,0.00,CLR,,0.00,WeatherDisplay:10.37,2013-09-18 18:20:00,
2013-09-18 20:25:00,68.4,64.7,29.63,East,90,0.0,1.0,88,0.00,CLR,,0.00,WeatherDisplay:10.37,2013-09-18 18:25:00,
2013-09-18 20:30:00,67.8,64.5,29.62,East,90,1.0,2.0,89,0.00,CLR,,0.00,WeatherDisplay:10.37,2013-09-18 18:30:00,
2013-09-18 20:35:00,67.8,64.5,29.62,East,90,1.0,2.0,89,0.00,CLR,,0.00,WeatherDisplay:10.37,2013-09-18 18:35:00,
2013-09-18 20:40:00,67.8,64.5,29.62,East,90,1.0,2.0,89,0.00,CLR,,0.00,WeatherDisplay:10.37,2013-09-18 18:40:00,
2013-09-18 20:45:00,67.6,64.3,29.62,ESE,109,0.0,2.0,89,0.00,CLR,,0.00,WeatherDisplay:10.37,2013-09-18 18:45:00,
2013-09-18 20:50:00,67.6,64.3,29.62,SE,130,0.0,0.0,89,0.00,CLR,,0.00,WeatherDisplay:10.37,2013-09-18 18:50:00,
2013-09-18 20:55:00,67.6,64.3,29.62,SE,135,0.0,0.0,89,0.00,CLR,,0.00,WeatherDisplay:10.37,2013-09-18 18:55:00,
2013-09-18 21:00:00,67.8,64.8,29.62,SE,135,0.0,2.0,90,0.00,CLR,,0.00,WeatherDisplay:10.37,2013-09-18 19:00:00,
2013-09-18 21:05:00,67.8,64.8,29.62,SE,135,0.0,2.0,90,0.00,CLR,,0.00,WeatherDisplay:10.37,2013-09-18 19:05:00,
2013-09-18 21:10:00,67.8,64.8,29.62,SE,135,0.0,2.0,90,0.00,CLR,,0.00,WeatherDisplay:10.37,2013-09-18 19:10:00,
2013-09-18 21:15:00,67.6,64.6,29.61,SE,144,1.0,2.0,90,0.00,CLR,,0.00,WeatherDisplay:10.37,2013-09-18 19:15:00,
2013-09-18 21:20:00,67.6,64.6,29.61,SSE,167,1.0,2.0,90,0.00,CLR,,0.00,WeatherDisplay:10.37,2013-09-18 19:20:00,
2013-09-18 21:25:00,67.6,64.6,29.61,South,180,1.0,2.0,90,0.00,CLR,,0.00,WeatherDisplay:10.37,2013-09-18 19:25:00,
2013-09-18 21:30:00,67.8,65.1,29.61,SSE,161,0.0,2.0,91,0.00,CLR,,0.00,WeatherDisplay:10.37,2013-09-18 19:30:00,
2013-09-18 21:35:00,67.8,65.1,29.61,SE,140,0.0,1.0,91,0.00,CLR,,0.00,WeatherDisplay:10.37,2013-09-18 19:35:00,
2013-09-18 21:40:00,67.8,65.1,29.61,SE,135,0.0,1.0,91,0.00,CLR,,0.00,WeatherDisplay:10.37,2013-09-18 19:40:00,
2013-09-18 21:45:00,68.0,65.3,29.61,SSE,148,0.0,2.0,91,0.00,CLR,,0.00,WeatherDisplay:10.37,2013-09-18 19:45:00,
2013-09-18 21:50:00,68.0,65.3,29.61,South,171,0.0,2.0,91,0.00,CLR,,0.00,WeatherDisplay:10.37,2013-09-18 19:50:00,
2013-09-18 21:55:00,68.0,65.3,29.61,South,180,0.0,2.0,91,0.00,CLR,,0.00,WeatherDisplay:10.37,2013-09-18 19:55:00,
2013-09-18 22:00:00,68.4,65.6,29.61,SSE,167,0.0,2.0,91,0.00,CLR,,0.00,WeatherDisplay:10.37,2013-09-18 20:00:00,
2013-09-18 22:05:00,68.4,65.6,29.61,SE,144,0.0,2.0,91,0.00,CLR,,0.00,WeatherDisplay:10.37,2013-09-18 20:05:00,
2013-09-18 22:10:00,68.4,65.6,29.61,SE,135,0.0,2.0,91,0.00,CLR,,0.00,WeatherDisplay:10.37,2013-09-18 20:10:00,
2013-09-18 22:15:00,68.5,65.8,29.60,SE,135,0.0,2.0,91,0.01,RA,,0.01,WeatherDisplay:10.37,2013-09-18 20:15:00,
2013-09-18 22:20:00,68.5,65.8,29.60,SE,135,0.0,1.0,91,0.01,RA,,0.01,WeatherDisplay:10.37,2013-09-18 20:20:00,
2013-09-18 22:25:00,68.5,65.8,29.60,SE,135,0.0,1.0,91,0.00,CLR,,0.01,WeatherDisplay:10.37,2013-09-18 20:25:00,
2013-09-18 22:30:00,68.4,65.6,29.60,SSE,148,0.0,2.0,91,0.00,CLR,,0.01,WeatherDisplay:10.37,2013-09-18 20:30:00,
2013-09-18 22:35:00,68.4,65.6,29.60,South,171,0.0,2.0,91,0.00,CLR,,0.01,WeatherDisplay:10.37,2013-09-18 20:35:00,
2013-09-18 22:40:00,68.4,65.6,29.60,South,180,0.0,2.0,91,0.00,CLR,,0.01,WeatherDisplay:10.37,2013-09-18 20:40:00,
2013-09-18 22:45:00,68.4,65.6,29.60,SSE,167,0.0,2.0,91,0.00,CLR,,0.01,WeatherDisplay:10.37,2013-09-18 20:45:00,
2013-09-18 22:50:00,68.4,65.6,29.60,SE,144,0.0,1.0,91,0.00,CLR,,0.01,WeatherDisplay:10.37,2013-09-18 20:50:00,
2013-09-18 22:55:00,68.4,65.6,29.60,SE,135,0.0,1.0,91,0.00,CLR,,0.01,WeatherDisplay:10.37,2013-09-18 20:55:00,
2013-09-18 23:00:00,68.4,65.6,29.60,SSE,159,0.0,2.0,91,0.00,CLR,,0.01,WeatherDisplay:10.37,2013-09-18 21:00:00,
2013-09-18 23:05:00,68.4,65.6,29.60,WSW,258,0.0,2.0,91,0.00,CLR,,0.01,WeatherDisplay:10.37,2013-09-18 21:05:00,
2013-09-18 23:10:00,68.4,65.6,29.60,West,270,0.0,2.0,91,0.00,CLR,,0.01,WeatherDisplay:10.37,2013-09-18 21:10:00,
2013-09-18 23:15:00,68.4,65.6,29.60,WSW,247,0.0,2.0,91,0.00,CLR,,0.01,WeatherDisplay:10.37,2013-09-18 21:15:00,
2013-09-18 23:20:00,68.4,65.6,29.60,SSW,194,0.0,1.0,91,0.00,CLR,,0.01,WeatherDisplay:10.37,2013-09-18 21:20:00,
2013-09-18 23:25:00,68.4,65.6,29.60,South,180,0.0,1.0,91,0.00,CLR,,0.01,WeatherDisplay:10.37,2013-09-18 21:25:00,
2013-09-18 23:30:00,68.4,65.6,29.60,SSE,167,0.0,1.0,91,0.00,CLR,,0.01,WeatherDisplay:10.37,2013-09-18 21:30:00,
2013-09-18 23:35:00,68.4,65.6,29.60,SE,144,0.0,0.0,91,0.00,CLR,,0.01,WeatherDisplay:10.37,2013-09-18 21:35:00,
2013-09-18 23:40:00,68.4,65.6,29.60,SE,135,0.0,0.0,91,0.00,CLR,,0.01,WeatherDisplay:10.37,2013-09-18 21:40:00,
2013-09-18 23:45:00,68.4,65.6,29.59,SSE,148,0.0,1.0,91,0.00,CLR,,0.01,WeatherDisplay:10.37,2013-09-18 21:45:00,
2013-09-18 23:50:00,68.4,65.6,29.59,South,171,0.0,1.0,91,0.00,CLR,,0.01,WeatherDisplay:10.37,2013-09-18 21:50:00,
2013-09-18 23:55:00,68.4,65.6,29.59,South,180,0.0,1.0,91,0.00,CLR,,0.01,WeatherDisplay:10.37,2013-09-18 21:55:00,